Погода в Коньшине

Россия / Орловская область     52°39′36″N   37°22′02″E
темп.,
°C
ветер,
м/с
пор.,
м/с
влажн.,
%
обл.,
%
осадки,
мм/ч
давл.,
гПа
погр.,
м
28 ноября, вс
вс2800:00+3ю51298100 0.0 1004317
03:00+3ю51198100 0.0 1004317
06:00+4ююз41198100 0.0 1004303
09:00+4ююз379894 0.0 1006201
12:00+5зюз36869 0.0 1007342
15:00+5ююз248511 0.0 1008117
18:00+3ююв3595100 0.0 100980
21:00+5ююв4893100 0.0 1009271
29 ноября, пн
пн2900:00+5ююв4890100 0.0 1009322
03:00+4юв51195100 0.0 1007245
06:00+4вюв51098100 0.0 1004239
09:00+5вюв61498100 3.3 1000523
12:00+6юв41199100 1.9 998351
15:00+8ю51298100 1.9 997462
18:00+8ююв51295100 0.1 994451
21:00+7вюв51197100 0.8 989364
30 ноября, вт
вт3000:00+8юв61298100 8.3 982425
03:00+8ю111987100 13.3 9781319
06:00+7юз131890100 6.5 9771298
09:00+1зюз142396100 12.4 9831117
12:00+1зюз132288100 1.9 9871160
15:00+1зюз121880100 2.0 9891104
18:00+1юз101682100 0.0 9911247
21:000юз9168287 0.1 9911275
1 декабря, ср
ср100:00−1юз81384100 0.1 991908
03:00−2зюз8128498 0.2 992986
06:00−2зюз81385100 0.1 9911011
09:00−2з71293100 0.4 994950
12:00−3з81291100 0.9 995949
15:00−3з81290100 1.4 996940
18:00−3з71288100 0.3 999805
21:00−4зсз7128499 0.3 1001734
2 декабря, чт
чт200:00−4зсз6108093 0.1 1002730
03:00−6з498993 0.1 1004442
06:00−6зюз499188 0.0 1006350
09:00−4ююз41087100 0.0 1006369
12:00−2ю71593100 0.1 1004619
15:00−1ююз81596100 1.4 1003669
18:00+1юз71597100 0.4 1004592
21:00+1юз61590100 0.4 1005451